| time (UTC) | temp F | wind direction | speed knots | gust knots | rain 1hr in | rain 24hr in | rain mn in | humidity % | barometer mb |
| 20260507015256 | 48 | 182 | 0.9 | 4.3 | 0.00 | 5.83 | 0.01 | 93 | 1008.5 |
| 20260507014741 | 48 | 70 | 2.6 | 4.3 | 0.00 | 5.83 | 0.01 | 93 | 1008.5 |
| 20260507014224 | 48 | 39 | 1.7 | 2.6 | 0.00 | 5.83 | 0.01 | 93 | 1008.5 |
| 20260507013729 | 48 | 24 | 1.7 | 2.6 | 0.00 | 5.83 | 0.01 | 93 | 1008.5 |
| 20260507013233 | 48 | 360 | 0.9 | 2.6 | 0.04 | 5.83 | 0.01 | 93 | 1008.5 |
| 20260507012758 | 48 | 197 | 0.9 | 2.6 | 0.04 | 5.83 | 0.01 | 93 | 1008.6 |
| 20260507012241 | 48 | 27 | 0.0 | 3.5 | 0.04 | 5.83 | 0.01 | 93 | 1008.5 |
| 20260507011726 | 48 | 42 | 2.6 | 4.3 | 0.04 | 5.83 | 0.01 | 93 | 1008.5 |
| 20260507011235 | 48 | 53 | 2.6 | 3.5 | 0.04 | 5.83 | 0.01 | 93 | 1008.6 |
| 20260507010740 | 48 | 169 | 0.9 | 3.5 | 0.04 | 5.83 | 0.01 | 92 | 1008.5 |
| 20260507010245 | 48 | 195 | 2.6 | 4.3 | 0.04 | 5.83 | 0.01 | 92 | 1008.6 |
| 20260507005729 | 48 | 209 | 2.6 | 5.2 | 0.04 | 5.98 | 0.01 | 93 | 1008.6 |
| 20260507005234 | 48 | 338 | 1.7 | 5.2 | 0.04 | 5.98 | 0.01 | 93 | 1008.6 |
| 20260507004738 | 48 | 52 | 2.6 | 4.3 | 0.04 | 5.98 | 0.01 | 93 | 1008.5 |
| 20260507004224 | 48 | 36 | 1.7 | 3.5 | 0.04 | 5.98 | 0.01 | 93 | 1008.6 |
| 20260507003729 | 48 | 36 | 0.9 | 4.3 | 0.04 | 5.98 | 0.01 | 93 | 1008.6 |
| 20260507003235 | 48 | 343 | 2.6 | 4.3 | 0.00 | 5.94 | 0.00 | 93 | 1008.7 |
| 20260507002740 | 48 | 61 | 0.9 | 2.6 | 0.00 | 5.94 | 0.00 | 93 | 1008.8 |
| 20260507002224 | 48 | 145 | 0.0 | 2.6 | 0.00 | 5.94 | 0.00 | 93 | 1008.7 |
| 20260507001748 | 48 | 145 | 0.9 | 2.6 | 0.00 | 5.94 | 0.00 | 92 | 1008.8 |
| 20260507001231 | 48 | 242 | 1.7 | 2.6 | 0.00 | 5.94 | 0.00 | 92 | 1008.7 |
| 20260507000740 | 48 | 98 | 0.0 | 2.6 | 0.00 | 5.94 | 0.00 | 92 | 1008.7 |
| 20260507000247 | 48 | 98 | 1.7 | 2.6 | 0.00 | 5.94 | 0.00 | 92 | 1008.7 |
| 20260506235730 | 48 | 38 | 0.9 | 2.6 | 0.00 | 6.30 | 0.00 | 92 | 1008.7 |
| 20260506235236 | 48 | 55 | 0.9 | 1.7 | 0.00 | 6.30 | 0.00 | 92 | 1008.8 |
| 20260506234742 | 48 | 342 | 0.9 | 1.7 | 0.00 | 6.30 | 0.00 | 92 | 1008.7 |
| 20260506234227 | 48 | 342 | 0.0 | 0.0 | 0.00 | 6.30 | 0.00 | 92 | 1008.8 |
| 20260506233733 | 48 | 342 | 0.0 | 0.9 | 0.00 | 6.30 | 0.00 | 91 | 1008.8 |
| 20260506233238 | 48 | 342 | 0.0 | 0.9 | 0.00 | 6.30 | 0.00 | 91 | 1008.7 |
| 20260506232723 | 48 | 342 | 0.0 | 3.5 | 0.00 | 6.30 | 0.00 | 91 | 1008.7 |
| 20260506232227 | 48 | 77 | 0.9 | 3.5 | 0.00 | 6.30 | 0.00 | 91 | 1008.7 |
| 20260506231731 | 48 | 47 | 1.7 | 5.2 | 0.00 | 6.30 | 0.00 | 91 | 1008.7 |
| 20260506231236 | 48 | 32 | 0.9 | 5.2 | 0.00 | 6.30 | 0.00 | 91 | 1008.6 |
| 20260506230233 | 48 | 277 | 0.9 | 4.3 | 0.00 | 6.30 | 0.00 | 91 | 1008.6 |
| 20260506225739 | 48 | 69 | 0.9 | 7.0 | 0.00 | 6.42 | 0.00 | 91 | 1008.5 |
| 20260506225225 | 48 | 360 | 2.6 | 7.0 | 0.04 | 6.42 | 0.00 | 91 | 1008.5 |
| 20260506224731 | 48 | 355 | 3.5 | 7.8 | 0.04 | 6.42 | 0.00 | 90 | 1008.5 |
| 20260506224257 | 48 | 58 | 4.3 | 8.7 | 0.04 | 6.42 | 0.00 | 90 | 1008.6 |
| 20260506223723 | 48 | 26 | 5.2 | 8.7 | 0.04 | 6.42 | 0.00 | 90 | 1008.6 |
| 20260506223228 | 48 | 22 | 4.3 | 6.1 | 0.04 | 6.42 | 0.00 | 91 | 1008.6 |
| 20260506222732 | 48 | 43 | 0.9 | 3.5 | 0.04 | 6.42 | 0.00 | 91 | 1008.8 |
| 20260506222237 | 48 | 294 | 0.9 | 3.5 | 0.04 | 6.42 | 0.00 | 91 | 1008.9 |
| 20260506221803 | 48 | 311 | 1.7 | 3.5 | 0.04 | 6.42 | 0.00 | 91 | 1008.9 |
| 20260506221227 | 48 | 35 | 1.7 | 7.8 | 0.04 | 6.42 | 0.00 | 90 | 1008.8 |
| 20260506220732 | 48 | 331 | 3.5 | 7.8 | 0.04 | 6.42 | 0.00 | 90 | 1008.7 |
| 20260506220241 | 48 | 49 | 4.3 | 10.4 | 0.04 | 6.42 | 0.00 | 90 | 1008.7 |
| 20260506215725 | 49 | 53 | 5.2 | 8.7 | 0.00 | 6.89 | 1.62 | 89 | 1008.7 |
| 20260506215230 | 49 | 74 | 4.3 | 7.0 | 0.00 | 6.89 | 1.62 | 89 | 1008.9 |
| 20260506214736 | 49 | 37 | 1.7 | 3.5 | 0.00 | 6.89 | 1.62 | 89 | 1009.0 |
| 20260506214241 | 49 | 63 | 1.7 | 5.2 | 0.00 | 6.89 | 1.62 | 89 | 1008.9 |
| 20260506213746 | 48 | 316 | 1.7 | 5.2 | 0.00 | 6.89 | 1.62 | 89 | 1008.9 |
| 20260506213230 | 48 | 355 | 1.7 | 4.3 | 0.00 | 6.89 | 1.62 | 89 | 1008.9 |
| 20260506212735 | 48 | 309 | 0.9 | 6.1 | 0.00 | 6.89 | 1.62 | 89 | 1008.9 |
| 20260506212240 | 49 | 213 | 0.9 | 6.1 | 0.00 | 6.89 | 1.62 | 88 | 1008.9 |
| 20260506211724 | 49 | 319 | 1.7 | 9.6 | 0.00 | 6.89 | 1.62 | 88 | 1008.8 |
| 20260506211228 | 49 | 5 | 3.5 | 12.2 | 0.00 | 6.89 | 1.62 | 88 | 1008.6 |
| 20260506210737 | 49 | 24 | 5.2 | 12.2 | 0.00 | 6.89 | 1.62 | 88 | 1008.4 |
| 20260506210241 | 48 | 42 | 4.3 | 9.6 | 0.00 | 6.89 | 1.62 | 89 | 1008.6 |
| 20260506205726 | 48 | 35 | 4.3 | 11.3 | 0.04 | 6.89 | 1.62 | 90 | 1008.6 |
| 20260506205230 | 48 | 335 | 5.2 | 10.4 | 0.08 | 6.89 | 1.62 | 90 | 1008.7 |
| 20260506204734 | 48 | 319 | 5.2 | 8.7 | 0.12 | 6.89 | 1.62 | 90 | 1008.7 |
| 20260506204236 | 48 | 30 | 1.7 | 8.7 | 0.16 | 6.89 | 1.62 | 90 | 1008.9 |
| 20260506203740 | 48 | 339 | 4.3 | 9.6 | 0.20 | 6.89 | 1.62 | 90 | 1008.9 |
| 20260506203243 | 48 | 355 | 4.3 | 12.2 | 0.24 | 6.89 | 1.62 | 90 | 1008.8 |
| 20260506202727 | 48 | 347 | 3.5 | 12.2 | 0.24 | 6.89 | 1.62 | 90 | 1008.7 |
| 20260506202230 | 48 | 360 | 4.3 | 10.4 | 0.24 | 6.89 | 1.62 | 90 | 1008.7 |
| 20260506201735 | 48 | 5 | 4.3 | 13.0 | 0.24 | 6.89 | 1.62 | 91 | 1008.8 |
| 20260506201240 | 48 | 321 | 7.0 | 13.0 | 0.24 | 6.89 | 1.62 | 91 | 1008.7 |
| 20260506200723 | 48 | 342 | 7.0 | 10.4 | 0.24 | 6.89 | 1.62 | 91 | 1008.8 |
| 20260506200230 | 48 | 355 | 5.2 | 10.4 | 0.28 | 6.89 | 1.62 | 91 | 1008.7 |
| 20260506195731 | 48 | 360 | 4.3 | 10.4 | 0.24 | 6.89 | 1.61 | 90 | 1008.8 |
| 20260506195234 | 48 | 327 | 6.1 | 13.9 | 0.24 | 6.85 | 1.60 | 89 | 1008.6 |
| 20260506194739 | 48 | 338 | 5.2 | 13.9 | 0.24 | 6.81 | 1.59 | 89 | 1008.5 |
| 20260506194239 | 48 | 308 | 7.8 | 13.0 | 0.28 | 6.77 | 1.58 | 89 | 1008.5 |
| 20260506193741 | 48 | 326 | 3.5 | 9.6 | 0.31 | 6.73 | 1.57 | 89 | 1008.4 |
| 20260506193246 | 49 | 315 | 3.5 | 9.6 | 0.43 | 6.69 | 1.56 | 88 | 1008.4 |
| 20260506192727 | 49 | 350 | 2.6 | 7.8 | 0.55 | 6.69 | 1.56 | 87 | 1008.3 |
| 20260506192233 | 49 | 304 | 4.3 | 13.0 | 0.71 | 6.69 | 1.56 | 86 | 1008.1 |
| 20260506191737 | 49 | 25 | 6.1 | 15.6 | 0.83 | 6.69 | 1.56 | 86 | 1007.9 |
| 20260506191242 | 49 | 13 | 7.8 | 17.4 | 0.98 | 6.69 | 1.56 | 86 | 1008.0 |
| 20260506190726 | 49 | 35 | 8.7 | 17.4 | 1.14 | 6.69 | 1.56 | 87 | 1008.0 |
| 20260506190231 | 49 | 18 | 7.0 | 13.0 | 1.26 | 6.65 | 1.55 | 87 | 1008.0 |
| 20260506185756 | 49 | 12 | 7.0 | 15.6 | 1.38 | 6.73 | 1.55 | 87 | 1008.0 |
| 20260506185259 | 49 | 64 | 9.6 | 15.6 | 1.50 | 6.69 | 1.54 | 88 | 1008.0 |
| 20260506184727 | 49 | 46 | 8.7 | 14.8 | 1.54 | 6.65 | 1.53 | 89 | 1008.0 |
| 20260506184254 | 49 | 355 | 9.6 | 14.8 | 1.54 | 6.57 | 1.51 | 90 | 1007.7 |
| 20260506183738 | 49 | 344 | 8.7 | 13.9 | 1.50 | 6.46 | 1.48 | 90 | 1007.8 |
| 20260506183241 | 49 | 25 | 6.1 | 14.8 | 1.42 | 6.34 | 1.45 | 91 | 1007.9 |
| 20260506182725 | 49 | 9 | 8.7 | 14.8 | 1.30 | 6.18 | 1.41 | 90 | 1007.9 |
| 20260506182229 | 50 | 360 | 8.7 | 14.8 | 1.22 | 6.06 | 1.38 | 90 | 1007.9 |
| 20260506181734 | 50 | 54 | 8.7 | 13.9 | 1.22 | 5.91 | 1.34 | 90 | 1008.1 |
| 20260506181239 | 50 | 28 | 7.8 | 13.9 | 1.34 | 5.79 | 1.31 | 90 | 1008.0 |
| 20260506180724 | 50 | 351 | 8.7 | 15.6 | 1.57 | 5.63 | 1.27 | 90 | 1007.9 |
| 20260506180229 | 49 | 9 | 10.4 | 15.6 | 2.05 | 5.47 | 1.23 | 91 | 1007.7 |
| 20260506175735 | 49 | 49 | 7.8 | 12.2 | 2.17 | 5.31 | 1.19 | 92 | 1007.7 |
| 20260506175259 | 49 | 5 | 4.3 | 9.6 | 2.05 | 5.20 | 1.16 | 91 | 1007.7 |
| 20260506174726 | 49 | 323 | 6.1 | 9.6 | 1.97 | 5.12 | 1.14 | 91 | 1007.7 |
| 20260506174228 | 49 | 332 | 4.3 | 12.2 | 1.89 | 5.04 | 1.12 | 91 | 1007.7 |
| 20260506173754 | 49 | 308 | 5.2 | 13.9 | 1.81 | 4.96 | 1.10 | 91 | 1007.4 |
| 20260506173257 | 50 | 43 | 5.2 | 13.9 | 1.77 | 4.92 | 1.09 | 91 | 1007.1 |
| 20260506172741 | 50 | 355 | 7.0 | 13.0 | 1.73 | 4.88 | 1.08 | 91 | 1006.8 |
| 20260506172226 | 50 | 303 | 7.8 | 13.0 | 1.65 | 4.80 | 1.06 | 91 | 1006.4 |
| 20260506171731 | 50 | 17 | 6.1 | 12.2 | 1.54 | 4.69 | 1.03 | 90 | 1006.2 |
| 20260506171235 | 51 | 355 | 7.0 | 10.4 | 1.26 | 4.41 | 0.96 | 89 | 1006.1 |
| 20260506170740 | 52 | 9 | 5.2 | 10.4 | 0.91 | 4.06 | 0.87 | 88 | 1006.0 |
| 20260506170224 | 53 | 15 | 6.1 | 9.6 | 0.16 | 3.31 | 0.70 | 88 | 1006.1 |
| 20260506165729 | 53 | 264 | 4.3 | 8.7 | 0.00 | 3.15 | 0.64 | 89 | 1006.0 |
| 20260506165234 | 54 | 327 | 2.6 | 9.6 | 0.00 | 3.15 | 0.64 | 88 | 1004.8 |
| 20260506164738 | 54 | 360 | 5.2 | 13.0 | 0.00 | 3.15 | 0.64 | 88 | 1004.6 |
| 20260506164242 | 54 | 326 | 6.1 | 13.0 | 0.00 | 3.15 | 0.64 | 88 | 1004.4 |
| 20260506163726 | 54 | 323 | 6.1 | 11.3 | 0.00 | 3.15 | 0.64 | 87 | 1004.2 |
| 20260506163231 | 54 | 327 | 3.5 | 9.6 | 0.00 | 3.15 | 0.64 | 87 | 1004.5 |
| 20260506162755 | 54 | 360 | 5.2 | 12.2 | 0.00 | 3.15 | 0.64 | 87 | 1004.7 |
| 20260506162242 | 54 | 333 | 5.2 | 11.3 | 0.00 | 3.15 | 0.64 | 87 | 1004.7 |
| 20260506161728 | 55 | 351 | 5.2 | 10.4 | 0.00 | 3.15 | 0.64 | 86 | 1004.5 |
| 20260506161233 | 55 | 9 | 4.3 | 10.4 | 0.00 | 3.15 | 0.64 | 86 | 1004.9 |
| 20260506160738 | 55 | 350 | 4.3 | 10.4 | 0.00 | 3.15 | 0.64 | 86 | 1004.7 |
| 20260506160242 | 55 | 333 | 3.5 | 8.7 | 0.00 | 3.15 | 0.64 | 86 | 1004.9 |
| 20260506155726 | 55 | 319 | 3.5 | 8.7 | 0.04 | 3.19 | 0.64 | 86 | 1005.0 |
| 20260506155231 | 55 | 14 | 4.3 | 9.6 | 0.04 | 3.19 | 0.64 | 86 | 1004.7 |
| 20260506154735 | 55 | 5 | 4.3 | 10.4 | 0.04 | 3.19 | 0.64 | 85 | 1004.8 |
| 20260506154240 | 55 | 336 | 3.5 | 10.4 | 0.04 | 3.19 | 0.64 | 86 | 1004.7 |
| 20260506153724 | 56 | 355 | 2.6 | 4.3 | 0.04 | 3.19 | 0.64 | 87 | 1004.6 |
| 20260506153230 | 56 | 15 | 2.6 | 8.7 | 0.04 | 3.19 | 0.64 | 86 | 1004.7 |
| 20260506152818 | 56 | 53 | 3.5 | 8.7 | 0.04 | 3.19 | 0.64 | 85 | 1004.7 |
| 20260506152239 | 56 | 289 | 3.5 | 7.0 | 0.04 | 3.19 | 0.64 | 86 | 1004.7 |
| 20260506151723 | 56 | 351 | 3.5 | 8.7 | 0.04 | 3.19 | 0.64 | 85 | 1004.7 |
| 20260506151229 | 56 | 347 | 2.6 | 8.7 | 0.04 | 3.19 | 0.64 | 85 | 1004.8 |
| 20260506150752 | 56 | 331 | 4.3 | 9.6 | 0.04 | 3.19 | 0.64 | 85 | 1004.8 |
| 20260506150236 | 56 | 329 | 5.2 | 9.6 | 0.04 | 3.19 | 0.64 | 86 | 1004.9 |
| 20260506145800 | 56 | 291 | 5.2 | 9.6 | 0.00 | 3.15 | 0.63 | 87 | 1004.9 |
| 20260506145223 | 56 | 316 | 4.3 | 10.4 | 0.00 | 3.15 | 0.63 | 86 | 1005.0 |
| 20260506144728 | 56 | 302 | 2.6 | 10.4 | 0.00 | 3.15 | 0.63 | 86 | 1005.1 |
| 20260506144233 | 56 | 300 | 3.5 | 7.8 | 0.00 | 3.15 | 0.63 | 86 | 1005.0 |
| 20260506143738 | 56 | 323 | 3.5 | 7.0 | 0.00 | 3.15 | 0.63 | 86 | 1005.2 |
| 20260506143303 | 56 | 347 | 3.5 | 5.2 | 0.00 | 3.15 | 0.63 | 86 | 1005.3 |
| 20260506142727 | 55 | 11 | 2.6 | 4.3 | 0.00 | 3.15 | 0.63 | 86 | 1005.4 |
| 20260506142232 | 55 | 331 | 2.6 | 4.3 | 0.04 | 3.15 | 0.63 | 87 | 1005.6 |
| 20260506141741 | 56 | 16 | 1.7 | 4.3 | 0.12 | 3.15 | 0.63 | 88 | 1005.6 |
| 20260506141224 | 55 | 318 | 1.7 | 5.2 | 0.20 | 3.15 | 0.63 | 88 | 1005.6 |
| 20260506140748 | 55 | 302 | 3.5 | 5.2 | 0.28 | 3.15 | 0.63 | 88 | 1005.7 |
| 20260506140252 | 55 | 340 | 1.7 | 3.5 | 0.35 | 3.15 | 0.63 | 89 | 1005.7 |
| 20260506135736 | 55 | 19 | 1.7 | 3.5 | 0.43 | 3.15 | 0.63 | 89 | 1005.9 |
| 20260506135241 | 55 | 360 | 1.7 | 3.5 | 0.47 | 3.15 | 0.63 | 89 | 1005.9 |
| 20260506134725 | 55 | 53 | 1.7 | 3.5 | 0.51 | 3.15 | 0.63 | 89 | 1006.1 |
| 20260506134231 | 55 | 335 | 1.7 | 3.5 | 0.51 | 3.15 | 0.63 | 89 | 1006.0 |
| 20260506133736 | 54 | 22 | 0.9 | 2.6 | 0.51 | 3.15 | 0.63 | 89 | 1006.1 |
| 20260506133241 | 54 | 330 | 0.9 | 2.6 | 0.51 | 3.15 | 0.63 | 89 | 1006.1 |
| 20260506132725 | 54 | 24 | 0.9 | 2.6 | 0.51 | 3.15 | 0.63 | 89 | 1006.1 |
| 20260506132230 | 54 | 346 | 0.0 | 2.6 | 0.43 | 3.07 | 0.61 | 89 | 1006.2 |
| 20260506131735 | 54 | 31 | 0.0 | 3.5 | 0.39 | 3.03 | 0.60 | 89 | 1006.2 |
| 20260506131242 | 54 | 66 | 1.7 | 3.5 | 0.31 | 2.95 | 0.58 | 88 | 1006.2 |
| 20260506130729 | 54 | 42 | 1.7 | 2.6 | 0.24 | 2.87 | 0.56 | 88 | 1006.1 |
| 20260506130233 | 54 | 66 | 0.9 | 2.6 | 0.16 | 2.80 | 0.54 | 87 | 1006.1 |
| 20260506125737 | 55 | 5 | 1.7 | 2.6 | 0.08 | 2.72 | 0.52 | 86 | 1006.0 |
| 20260506125241 | 55 | 66 | 0.0 | 3.5 | 0.04 | 2.68 | 0.51 | 85 | 1006.1 |
| 20260506124725 | 55 | 331 | 1.7 | 3.5 | 0.00 | 2.64 | 0.50 | 84 | 1006.1 |
| 20260506124230 | 56 | 360 | 0.0 | 0.0 | 0.00 | 2.64 | 0.50 | 84 | 1005.9 |
| 20260506123735 | 56 | 360 | 0.0 | 0.0 | 0.00 | 2.64 | 0.50 | 83 | 1005.9 |
| 20260506123240 | 56 | 298 | 0.0 | 0.9 | 0.00 | 2.64 | 0.50 | 83 | 1006.1 |
| 20260506122727 | 56 | 298 | 0.0 | 1.7 | 0.00 | 2.64 | 0.50 | 82 | 1006.2 |
| 20260506122252 | 56 | 298 | 0.9 | 1.7 | 0.00 | 2.64 | 0.50 | 80 | 1006.3 |
| 20260506121755 | 56 | 298 | 0.0 | 2.6 | 0.00 | 2.64 | 0.50 | 79 | 1006.3 |
| 20260506121238 | 57 | 298 | 1.7 | 2.6 | 0.00 | 2.64 | 0.50 | 80 | 1006.3 |
| 20260506120723 | 57 | 360 | 0.0 | 3.5 | 0.04 | 2.64 | 0.50 | 84 | 1006.3 |
| 20260506120231 | 56 | 5 | 1.7 | 3.5 | 0.04 | 2.64 | 0.50 | 82 | 1006.4 |
| 20260506115756 | 56 | 59 | 0.9 | 2.6 | 0.04 | 2.64 | 0.50 | 85 | 1006.4 |
| 20260506115239 | 56 | 59 | 0.0 | 1.7 | 0.04 | 2.64 | 0.50 | 86 | 1006.4 |
| 20260506114724 | 55 | 40 | 0.0 | 2.6 | 0.04 | 2.64 | 0.50 | 86 | 1006.6 |
| 20260506114248 | 54 | 74 | 0.9 | 2.6 | 0.04 | 2.64 | 0.50 | 86 | 1006.6 |
| 20260506113728 | 54 | 355 | 0.9 | 2.6 | 0.04 | 2.64 | 0.50 | 87 | 1006.6 |
| 20260506113233 | 53 | 219 | 0.9 | 2.6 | 0.04 | 2.64 | 0.50 | 88 | 1006.5 |
| 20260506112737 | 53 | 355 | 1.7 | 7.8 | 0.04 | 2.64 | 0.50 | 89 | 1006.5 |
| 20260506112305 | 53 | 298 | 2.6 | 8.7 | 0.08 | 2.64 | 0.50 | 90 | 1006.6 |
| 20260506111746 | 53 | 344 | 3.5 | 8.7 | 0.12 | 2.64 | 0.50 | 90 | 1006.6 |
| 20260506111247 | 53 | 339 | 3.5 | 8.7 | 0.12 | 2.64 | 0.50 | 91 | 1006.5 |
| 20260506110732 | 52 | 21 | 3.5 | 7.0 | 0.12 | 2.60 | 0.49 | 91 | 1006.6 |
| 20260506110238 | 52 | 288 | 0.9 | 5.2 | 0.16 | 2.60 | 0.49 | 92 | 1006.9 |
| 20260506105745 | 52 | 336 | 1.7 | 4.3 | 0.24 | 2.64 | 0.49 | 92 | 1006.9 |
| 20260506105228 | 52 | 44 | 2.6 | 7.0 | 0.28 | 2.64 | 0.49 | 92 | 1007.0 |
| 20260506104733 | 52 | 322 | 3.5 | 7.0 | 0.31 | 2.64 | 0.49 | 92 | 1006.8 |
| 20260506104239 | 52 | 334 | 3.5 | 7.8 | 0.35 | 2.64 | 0.49 | 92 | 1006.9 |
| 20260506103728 | 52 | 12 | 3.5 | 7.8 | 0.39 | 2.64 | 0.49 | 92 | 1007.0 |
| 20260506103234 | 52 | 343 | 3.5 | 7.0 | 0.39 | 2.64 | 0.49 | 92 | 1007.1 |
| 20260506102739 | 52 | 355 | 1.7 | 4.3 | 0.43 | 2.64 | 0.49 | 92 | 1007.2 |
| 20260506102224 | 52 | 346 | 0.9 | 4.3 | 0.39 | 2.60 | 0.48 | 92 | 1007.3 |
| 20260506101729 | 52 | 316 | 2.6 | 5.2 | 0.35 | 2.56 | 0.47 | 92 | 1007.3 |
| 20260506101235 | 52 | 5 | 3.5 | 7.0 | 0.35 | 2.56 | 0.47 | 92 | 1007.4 |
| 20260506100742 | 52 | 21 | 2.6 | 4.3 | 0.31 | 2.52 | 0.46 | 91 | 1007.1 |
| 20260506100225 | 52 | 12 | 2.6 | 4.3 | 0.28 | 2.48 | 0.45 | 91 | 1007.1 |
| 20260506095730 | 52 | 22 | 2.6 | 3.5 | 0.24 | 2.68 | 0.43 | 90 | 1007.1 |
| 20260506095235 | 52 | 266 | 0.0 | 3.5 | 0.20 | 2.64 | 0.42 | 90 | 1007.3 |
| 20260506094740 | 52 | 277 | 2.6 | 4.3 | 0.16 | 2.60 | 0.41 | 90 | 1007.5 |
| 20260506094224 | 52 | 200 | 0.0 | 7.0 | 0.12 | 2.56 | 0.40 | 90 | 1007.2 |
| 20260506093748 | 52 | 246 | 1.7 | 7.8 | 0.08 | 2.52 | 0.39 | 90 | 1007.0 |
| 20260506093233 | 52 | 304 | 2.6 | 7.0 | 0.08 | 2.52 | 0.39 | 90 | 1006.9 |
| 20260506092743 | 53 | 27 | 1.7 | 7.8 | 0.04 | 2.48 | 0.38 | 90 | 1006.6 |
| 20260506092228 | 53 | 17 | 3.5 | 7.8 | 0.04 | 2.48 | 0.38 | 89 | 1006.4 |
| 20260506091734 | 53 | 333 | 3.5 | 7.0 | 0.04 | 2.48 | 0.38 | 89 | 1006.4 |
| 20260506091258 | 53 | 15 | 2.6 | 3.5 | 0.04 | 2.48 | 0.38 | 89 | 1006.6 |
| 20260506090723 | 53 | 16 | 2.6 | 3.5 | 0.04 | 2.48 | 0.38 | 88 | 1006.8 |
| 20260506090230 | 53 | 351 | 1.7 | 3.5 | 0.04 | 2.48 | 0.38 | 88 | 1006.6 |
| 20260506085756 | 53 | 360 | 0.9 | 4.3 | 0.00 | 2.80 | 0.37 | 88 | 1006.6 |
| 20260506085241 | 53 | 294 | 0.9 | 3.5 | 0.00 | 2.80 | 0.37 | 88 | 1006.7 |
| 20260506084727 | 53 | 347 | 0.9 | 3.5 | 0.00 | 2.80 | 0.37 | 88 | 1006.5 |
| 20260506084233 | 53 | 320 | 0.9 | 3.5 | 0.00 | 2.80 | 0.37 | 88 | 1006.5 |
| 20260506083738 | 53 | 315 | 1.7 | 4.3 | 0.00 | 2.80 | 0.37 | 88 | 1006.6 |
| 20260506083243 | 53 | 336 | 2.6 | 5.2 | 0.00 | 2.80 | 0.37 | 88 | 1006.6 |
| 20260506082733 | 53 | 5 | 1.7 | 7.0 | 0.00 | 2.80 | 0.37 | 88 | 1006.5 |
| 20260506082239 | 53 | 315 | 3.5 | 7.0 | 0.00 | 2.80 | 0.37 | 89 | 1006.6 |
| 20260506081742 | 53 | 325 | 2.6 | 5.2 | 0.00 | 2.80 | 0.37 | 90 | 1006.8 |
| 20260506081228 | 53 | 26 | 2.6 | 4.3 | 0.00 | 2.80 | 0.37 | 90 | 1006.8 |
| 20260506080735 | 53 | 360 | 1.7 | 3.5 | 0.00 | 2.80 | 0.37 | 91 | 1006.6 |
| 20260506080240 | 53 | 302 | 0.9 | 7.0 | 0.00 | 2.80 | 0.37 | 91 | 1006.6 |
| 20260506073247 | 52 | 344 | 2.6 | 7.0 | 0.00 | 2.91 | 0.37 | 93 | 1006.8 |
| 20260506072734 | 52 | 325 | 2.6 | 7.0 | 0.00 | 2.91 | 0.37 | 93 | 1006.9 |
| 20260506072238 | 52 | 9 | 2.6 | 7.0 | 0.00 | 2.91 | 0.37 | 93 | 1006.9 |
| 20260506071722 | 52 | 56 | 1.7 | 4.3 | 0.00 | 2.91 | 0.37 | 93 | 1006.9 |
| 20260506071248 | 52 | 5 | 2.6 | 7.8 | 0.00 | 2.91 | 0.37 | 93 | 1007.0 |
| 20260506070732 | 52 | 23 | 4.3 | 7.8 | 0.00 | 2.91 | 0.37 | 93 | 1007.0 |
| 20260506070236 | 52 | 59 | 1.7 | 3.5 | 0.00 | 2.91 | 0.37 | 93 | 1007.1 |
| 20260506062227 | 51 | 340 | 1.7 | 5.2 | 0.20 | 2.95 | 0.37 | 94 | 1007.3 |
| 20260506061752 | 51 | 337 | 3.5 | 7.0 | 0.28 | 2.95 | 0.37 | 94 | 1007.3 |
| 20260506061236 | 51 | 360 | 2.6 | 5.2 | 0.31 | 2.95 | 0.37 | 94 | 1007.1 |
| 20260506060740 | 51 | 10 | 2.6 | 7.8 | 0.35 | 2.95 | 0.37 | 94 | 1007.1 |
| 20260506060244 | 51 | 360 | 4.3 | 8.7 | 0.39 | 2.95 | 0.37 | 94 | 1007.2 |
| 20260506051236 | 51 | 71 | 2.6 | 5.2 | 0.20 | 2.64 | 0.29 | 93 | 1007.4 |
| 20260506050741 | 51 | 24 | 3.5 | 5.2 | 0.16 | 2.60 | 0.28 | 93 | 1007.3 |
| 20260506050225 | 52 | 41 | 1.7 | 2.6 | 0.12 | 2.56 | 0.27 | 94 | 1007.4 |
| 20260506044745 | 51 | 45 | 0.0 | 2.6 | 0.04 | 2.48 | 0.25 | 94 | 1007.6 |
| 20260506044250 | 51 | 22 | 1.7 | 2.6 | 0.04 | 2.48 | 0.25 | 93 | 1007.5 |
| 20260506043732 | 52 | 9 | 1.7 | 3.5 | 0.04 | 2.48 | 0.25 | 93 | 1007.5 |
| 20260506043237 | 52 | 39 | 1.7 | 4.3 | 0.04 | 2.48 | 0.25 | 93 | 1007.4 |
| 20260506042741 | 52 | 21 | 1.7 | 5.2 | 0.04 | 2.48 | 0.25 | 93 | 1007.3 |
| 20260506042226 | 52 | 9 | 3.5 | 5.2 | 0.04 | 2.48 | 0.25 | 93 | 1007.2 |
| 20260506041731 | 52 | 24 | 3.5 | 4.3 | 0.00 | 2.44 | 0.24 | 94 | 1007.3 |
| 20260506041235 | 52 | 24 | 2.6 | 4.3 | 0.00 | 2.44 | 0.24 | 94 | 1007.2 |
| 20260506040739 | 52 | 40 | 2.6 | 3.5 | 0.00 | 2.44 | 0.24 | 94 | 1007.2 |
| 20260506040242 | 52 | 13 | 1.7 | 4.3 | 0.00 | 2.44 | 0.24 | 94 | 1007.2 |
| 20260506035727 | 52 | 50 | 2.6 | 4.3 | 0.00 | 2.44 | 0.24 | 94 | 1007.2 |
| 20260506035231 | 52 | 32 | 2.6 | 4.3 | 0.00 | 2.44 | 0.24 | 94 | 1007.1 |
| 20260506034756 | 52 | 11 | 2.6 | 5.2 | 0.00 | 2.44 | 0.24 | 94 | 1007.0 |
| 20260506034300 | 52 | 38 | 2.6 | 4.3 | 0.00 | 2.44 | 0.24 | 94 | 1007.0 |
| 20260506033727 | 52 | 13 | 1.7 | 5.2 | 0.00 | 2.44 | 0.24 | 94 | 1007.0 |
| 20260506033232 | 52 | 65 | 2.6 | 5.2 | 0.00 | 2.44 | 0.24 | 94 | 1007.1 |
| 20260506032757 | 52 | 55 | 2.6 | 5.2 | 0.04 | 2.44 | 0.24 | 94 | 1007.2 |
| 20260506032241 | 52 | 11 | 3.5 | 5.2 | 0.04 | 2.44 | 0.24 | 94 | 1007.3 |
| 20260506031727 | 52 | 41 | 3.5 | 4.3 | 0.04 | 2.44 | 0.24 | 94 | 1007.4 |
| 20260506031232 | 52 | 27 | 2.6 | 4.3 | 0.04 | 2.44 | 0.24 | 94 | 1007.5 |
| 20260506030737 | 52 | 40 | 1.7 | 4.3 | 0.04 | 2.44 | 0.24 | 94 | 1007.6 |
| 20260506030240 | 52 | 11 | 1.7 | 3.5 | 0.04 | 2.44 | 0.24 | 94 | 1007.7 |
| 20260506025724 | 52 | 24 | 1.7 | 3.5 | 0.04 | 2.44 | 0.24 | 94 | 1007.8 |
| 20260506025229 | 52 | 58 | 2.6 | 3.5 | 0.04 | 2.44 | 0.24 | 95 | 1007.9 |
| 20260506024734 | 52 | 62 | 1.7 | 3.5 | 0.04 | 2.44 | 0.24 | 95 | 1008.0 |
| 20260506024239 | 52 | 53 | 2.6 | 3.5 | 0.04 | 2.44 | 0.24 | 95 | 1008.0 |
| 20260506023727 | 52 | 37 | 2.6 | 3.5 | 0.04 | 2.44 | 0.24 | 95 | 1008.0 |
| 20260506023230 | 52 | 23 | 1.7 | 3.5 | 0.04 | 2.44 | 0.24 | 95 | 1008.0 |
| 20260506022756 | 52 | 322 | 1.7 | 3.5 | 0.00 | 2.40 | 0.23 | 95 | 1008.1 |
| 20260506022239 | 52 | 42 | 0.0 | 2.6 | 0.00 | 2.40 | 0.23 | 95 | 1008.2 |
| 20260506021724 | 52 | 355 | 0.0 | 2.6 | 0.04 | 2.40 | 0.23 | 95 | 1008.2 |
| 20260506021226 | 52 | 13 | 0.0 | 2.6 | 0.08 | 2.40 | 0.23 | 94 | 1008.3 |
| 20260506020731 | 52 | 13 | 0.9 | 2.6 | 0.16 | 2.40 | 0.23 | 94 | 1008.2 |
| 20260506020236 | 52 | 38 | 0.9 | 1.7 | 0.20 | 2.40 | 0.23 | 95 | 1008.3 |
| 20260506015802 | 52 | 14 | 0.0 | 0.9 | 0.28 | 2.40 | 0.23 | 95 | 1008.3 |